Location: Newark
(48.9000°N, 0.7000°E)
Time: 21:05:54
(UTC+00:00)

ISS - Pass Details

Date: 03 October 2020
Orbit: 418 x 420 km, 51.6° (Epoch: 20 October)

Event Time Altitude Azimuth Distance (km) Brightness Sun altitude
Rises 19:05:54 0° 290° (WNW) 2,369 1.8 -16.3°
Reaches altitude 10° 19:08:04 10° 282° (WNW) 1,503 0.4 -16.7°
Maximum altitude 19:11:15 40° 212° (SSW) 638 -2.7 -17.2°
Enters shadow 19:12:24 29° 166° (SSE) 806 -2.6 -17.4°
